GW6118 Weather Reports


time (UTC)temp
C
wind
direction
speed
KPH
gust
KPH
rain 1hr
cm
rain 24hr
cm
rain mn
cm
humidity
%
barometer
mb
20260510121524 11 223 1.6 6.4 0.00 0.23 0.00 96 1012.1
20260510120013 11 238 1.6 3.2 0.00 0.23 0.00 96 1012.0
20260510114518 11 283 0.0 3.2 0.00 0.23 0.00 96 1011.8
20260510113019 11 261 0.0 3.2 0.00 0.23 0.00 96 1011.5
20260510111526 11 288 0.0 6.4 0.00 0.23 0.00 96 1011.2
20260510103021 10 225 0.0 3.2 0.00 0.23 0.00 96 1011.2
20260510101522 10 240 1.6 4.8 0.00 0.23 0.00 96 1010.9
20260510100025 10 200 1.6 3.2 0.00 0.23 0.00 96 1010.9
20260510094518 10 248 0.0 0.0 0.00 0.23 0.00 96 1010.6
20260510093030 10 248 0.0 0.0 0.00 0.23 0.00 96 1010.2
20260510091526 10 248 0.0 0.0 0.00 0.23 0.00 96 1010.7
20260510090039 10 248 0.0 0.0 0.00 0.23 0.00 96 1010.4
20260510084529 10 248 0.0 0.0 0.00 0.23 0.00 96 1010.6
20260510083017 10 9 0.0 0.0 0.00 0.23 0.00 96 1010.5
20260510081524 10 9 0.0 3.2 0.00 0.23 0.00 96 1010.8
20260510080023 10 22 0.0 3.2 0.00 0.23 0.00 96 1010.7
20260510074525 10 350 1.6 3.2 0.00 0.23 0.00 96 1010.9
20260510073016 10 11 1.6 8.0 0.00 0.23 0.00 96 1010.5
20260510071523 10 352 1.6 6.4 0.00 0.23 0.00 96 1010.4
20260510070027 9 188 0.0 0.0 0.00 0.23 0.00 96 1010.0
20260510064528 9 170 0.0 0.0 0.00 0.23 0.00 96 1010.1
20260510063027 9 142 0.0 0.0 0.00 0.23 0.00 96 1010.3
20260510061518 9 142 0.0 0.0 0.00 0.23 0.00 96 1010.4
20260510060021 8 18 0.0 1.6 0.00 0.23 0.00 95 1010.7
20260510054524 8 229 0.0 0.0 0.00 0.23 0.00 94 1010.1
20260510053026 9 229 0.0 0.0 0.00 0.23 0.00 95 1010.0
20260510051529 10 229 0.0 1.6 0.00 0.23 0.00 95 1010.1
20260510050016 9 244 0.0 1.6 0.00 0.23 0.00 95 1010.2
20260510044503 9 230 0.0 0.0 0.00 0.23 0.00 95 1010.4
20260510043010 9 230 0.0 0.0 0.00 0.23 0.00 94 1010.4
20260510041512 9 230 0.0 0.0 0.00 0.23 0.00 94 1010.5
20260510040017 9 300 0.0 0.0 0.00 0.23 0.00 93 1010.4
20260510034519 10 241 0.0 0.0 0.00 0.23 0.23 94 1010.4
20260510033005 10 241 0.0 0.0 0.00 0.23 0.23 94 1010.4
20260510031510 10 243 0.0 0.0 0.00 0.23 0.23 93 1010.3
20260510030024 10 243 0.0 0.0 0.00 0.23 0.23 93 1010.3
20260510024519 10 243 0.0 0.0 0.00 0.23 0.23 92 1010.2
20260510023022 10 243 0.0 0.0 0.00 0.23 0.23 92 1010.2
20260510021513 11 243 0.0 0.0 0.00 0.23 0.23 92 1009.9
20260510020012 11 243 0.0 0.0 0.00 0.23 0.23 92 1009.9
20260510014519 11 221 0.0 3.2 0.00 0.23 0.23 92 1010.0
20260510013024 12 265 0.0 1.6 0.00 0.23 0.23 92 1009.9
20260510011506 12 250 0.0 3.2 0.00 0.23 0.23 92 1009.9
20260510010011 12 190 0.0 3.2 0.00 0.23 0.23 90 1009.7
20260510004513 12 190 0.0 0.0 0.00 0.23 0.23 89 1009.5
20260510003024 12 158 0.0 3.2 0.00 0.23 0.23 88 1009.5
20260510001522 13 143 0.0 3.2 0.00 0.23 0.23 87 1009.2
20260510000008 13 64 0.0 3.2 0.00 0.23 0.23 84 1009.0
20260509234515 13 244 0.0 6.4 0.00 0.23 0.23 82 1009.0
20260509233022 14 253 0.0 4.8 0.00 0.23 0.23 80 1009.1
20260509231522 15 255 1.6 4.8 0.00 0.23 0.23 77 1009.2
20260509230022 15 219 1.6 3.2 0.00 0.23 0.23 75 1009.0
20260509224507 15 178 0.0 3.2 0.00 0.23 0.23 75 1008.9
20260509223016 15 271 1.6 6.4 0.00 0.23 0.23 76 1009.1
20260509221518 14 288 3.2 4.8 0.00 0.23 0.23 79 1009.2
20260509220022 14 281 1.6 6.4 0.00 0.23 0.23 80 1009.1
20260509214506 14 294 0.0 3.2 0.00 0.23 0.23 83 1009.2
20260509213011 13 352 0.0 4.8 0.00 0.23 0.23 82 1009.0
20260509211515 13 240 1.6 6.4 0.00 0.23 0.23 83 1009.2
20260509210021 13 258 1.6 4.8 0.00 0.23 0.23 82 1009.5
20260509204523 14 5 1.6 6.4 0.00 0.23 0.23 86 1009.6
20260509203021 13 250 0.0 3.2 0.00 0.23 0.23 85 1009.6
20260509201515 13 242 1.6 4.8 0.03 0.23 0.23 85 1009.5
20260509200018 13 222 1.6 4.8 0.03 0.23 0.23 86 1009.6
20260509194526 13 231 0.0 3.2 0.05 0.23 0.23 88 1009.8
20260509193007 12 216 0.0 3.2 0.05 0.23 0.23 89 1009.9
20260509191516 12 32 0.0 1.6 0.05 0.20 0.20 88 1010.4
20260509190019 12 257 0.0 3.2 0.10 0.20 0.20 88 1010.7
20260509184529 12 252 0.0 3.2 0.08 0.18 0.18 87 1011.0
20260509183007 12 313 0.0 4.8 0.08 0.18 0.18 88 1011.0
20260509181507 12 65 0.0 3.2 0.05 0.15 0.15 89 1011.0
20260509180019 13 360 0.0 4.8 0.03 0.10 0.10 88 1011.1
20260509174521 13 241 1.6 4.8 0.08 0.10 0.10 89 1010.9
20260509173004 13 251 0.0 3.2 0.08 0.10 0.10 89 1010.9
20260509171508 12 346 0.0 3.2 0.10 0.10 0.10 88 1010.7
20260509170013 13 272 0.0 4.8 0.08 0.08 0.08 85 1010.7
20260509164519 13 328 1.6 12.9 0.03 0.03 0.03 85 1010.8
20260509163023 13 251 8.0 12.9 0.03 0.03 0.03 83 1011.0
20260509161504 13 248 4.8 14.5 0.00 0.00 0.00 82 1011.1
20260509160012 13 232 3.2 11.3 0.00 0.00 0.00 82 1011.1
20260509154521 13 227 8.0 22.5 0.00 0.00 0.00 80 1011.3
20260509153020 13 223 4.8 16.1 0.00 0.00 0.00 80 1011.4
20260509151526 13 202 3.2 11.3 0.00 0.00 0.00 81 1011.3
20260509150008 13 261 6.4 14.5 0.00 0.00 0.00 81 1011.2
20260509144519 13 248 6.4 12.9 0.00 0.00 0.00 80 1011.1
20260509143018 13 202 3.2 16.1 0.00 0.00 0.00 78 1011.0
20260509141522 13 259 6.4 11.3 0.00 0.00 0.00 78 1011.0
20260509140027 13 234 3.2 11.3 0.00 0.00 0.00 77 1010.9
20260509134510 13 221 4.8 14.5 0.00 0.00 0.00 78 1010.9
20260509133017 13 228 3.2 6.4 0.00 0.00 0.00 78 1010.7
20260509131517 13 234 3.2 9.7 0.00 0.00 0.00 78 1010.8
20260509130043 12 228 0.0 4.8 0.00 0.00 0.00 79 1010.9
20260509124508 12 240 1.6 6.4 0.00 0.00 0.00 79 1011.0
20260509123011 12 193 1.6 6.4 0.00 0.00 0.00 79 1010.8